Weather History for Pauls Valley, OK

Change the Weather History Date:

Friday, October 11, 2013

  Actual Average (KADH) Record (KADH)
Temperature  
Mean Temperature 75 °F -  
Max Temperature 86 °F 77 °F 94 °F (1963)
Min Temperature 64 °F 51 °F 32 °F (1932)
Cooling Degree Days 10    
Growing Degree Days 25 (Base 50)    
Moisture  
Dew Point 62 °F    
Average Humidity 69    
Maximum Humidity 94    
Minimum Humidity 40    
Precipitation  
Precipitation 0.00 in - - ()
Sea Level Pressure  
Sea Level Pressure 29.85 in    
Wind  
Wind Speed 12 mph (South)    
Max Wind Speed 21 mph    
Max Gust Speed 32 mph    
Visibility 10 miles    
Events      
Averages and records for this station are not official NWS values.
T = Trace of Precipitation, MM = Missing Value Source: NWS Daily Summary

Daily Weather History Graph

Daily Weather History Graph

Search for Another Location

Airport:

Trip Planner

Search our weather history database for the weather conditions in past years. The results will help you decide how hot, cold, wet, or windy it might be!

Date:

Astronomy

Oct. 11, 2013 Rise Set
Actual Time 7:31 AM CDT 6:58 PM CDT
Civil Twilight 7:06 AM CDT 7:24 PM CDT
Nautical Twilight 6:36 AM CDT 7:53 PM CDT
Astronomical Twilight 6:07 AM CDT 8:22 PM CDT
Moon 2:07 PM CDT (10/11) No Moon Set
Length of Visible Light 12h 18m
Length of Day
11h 27m
Waxing Crescent, 47% of the Moon is Illuminated
Oct 11
Waxing Crescent
Oct 11
First Quarter
Oct 18
Full
Oct 26
Last Quarter
Nov 3
New

Hourly Weather History & Observations

Time (CDT) Temp. Heat Index Dew Point Humidity Pressure Visibility Wind Dir Wind Speed Gust Speed Precip Events Conditions
12:15 AM 68.0 °F - 55.4 °F 64% 29.86 in 10.0 mi SSE 13.8 mph - N/A   Unknown
12:35 AM 68.0 °F - 55.4 °F 64% 29.86 in 10.0 mi SSE 12.7 mph 19.6 mph N/A   Unknown
12:55 AM 68.0 °F - 55.4 °F 64% 29.86 in 10.0 mi SSE 13.8 mph - N/A   Unknown
1:15 AM 68.0 °F - 55.4 °F 64% 29.86 in 10.0 mi SSE 10.4 mph - N/A   Unknown
1:55 AM 66.2 °F - 55.4 °F 68% 29.86 in 10.0 mi SSE 11.5 mph 16.1 mph N/A   Unknown
2:15 AM 66.2 °F - 55.4 °F 68% 29.86 in 10.0 mi SSE 11.5 mph - N/A   Unknown
2:35 AM 64.4 °F - 55.4 °F 73% 29.86 in 10.0 mi SSE 9.2 mph 17.3 mph N/A   Unknown
2:55 AM 64.4 °F - 55.4 °F 73% 29.86 in 10.0 mi SSE 11.5 mph - N/A   Unknown
3:15 AM 64.4 °F - 57.2 °F 77% 29.86 in 10.0 mi SSE 11.5 mph 16.1 mph N/A   Unknown
3:35 AM 64.4 °F - 57.2 °F 77% 29.85 in 10.0 mi SSE 10.4 mph - N/A   Unknown
3:55 AM 64.4 °F - 57.2 °F 77% 29.85 in 10.0 mi SSE 9.2 mph - N/A   Unknown
4:15 AM 64.4 °F - 59.0 °F 83% 29.85 in 10.0 mi SSE 9.2 mph - N/A   Unknown
4:35 AM 64.4 °F - 59.0 °F 83% 29.87 in 10.0 mi South 9.2 mph - N/A   Unknown
4:55 AM 64.4 °F - 59.0 °F 83% 29.86 in 10.0 mi SSE 11.5 mph - N/A   Unknown
5:15 AM 64.4 °F - 59.0 °F 83% 29.86 in 10.0 mi SSE 10.4 mph - N/A   Unknown
5:35 AM 64.4 °F - 60.8 °F 88% 29.87 in 10.0 mi SSE 8.1 mph - N/A   Unknown
5:55 AM 64.4 °F - 60.8 °F 88% 29.87 in 10.0 mi SSE 8.1 mph - N/A   Unknown
6:15 AM 64.4 °F - 60.8 °F 88% 29.87 in 10.0 mi SSE 8.1 mph - N/A   Unknown
6:35 AM 64.4 °F - 60.8 °F 88% 29.87 in 10.0 mi SSE 10.4 mph - N/A   Unknown
6:55 AM 64.4 °F - 60.8 °F 88% 29.88 in 10.0 mi South 12.7 mph - N/A   Unknown
7:15 AM 64.4 °F - 60.8 °F 88% 29.88 in 10.0 mi South 11.5 mph - N/A   Unknown
7:35 AM 64.4 °F - 60.8 °F 88% 29.88 in 10.0 mi South 11.5 mph - N/A   Unknown
7:55 AM 64.4 °F - 60.8 °F 88% 29.87 in 10.0 mi SSE 12.7 mph 18.4 mph N/A   Unknown
8:15 AM 64.4 °F - 62.6 °F 94% 29.87 in 10.0 mi SSE 11.5 mph - N/A   Unknown
8:35 AM 66.2 °F - 62.6 °F 88% 29.87 in 10.0 mi SSE 10.4 mph - N/A   Unknown
8:55 AM 68.0 °F - 62.6 °F 83% 29.87 in 10.0 mi South 12.7 mph 16.1 mph N/A   Unknown
9:15 AM 69.8 °F - 62.6 °F 78% 29.88 in 10.0 mi South 17.3 mph 21.9 mph N/A   Unknown
9:35 AM 71.6 °F - 62.6 °F 73% 29.88 in 10.0 mi South 18.4 mph 25.3 mph N/A   Unknown
9:55 AM 73.4 °F - 64.4 °F 73% 29.88 in 10.0 mi South 19.6 mph 24.2 mph N/A   Unknown
10:15 AM 73.4 °F - 64.4 °F 73% 29.88 in 10.0 mi South 18.4 mph 28.8 mph N/A   Unknown
10:35 AM 75.2 °F - 64.4 °F 69% 29.88 in 10.0 mi South 20.7 mph 32.2 mph N/A   Unknown
10:55 AM 77.0 °F - 64.4 °F 65% 29.87 in 10.0 mi SSW 15.0 mph 23.0 mph N/A   Unknown
11:15 AM 77.0 °F - 64.4 °F 65% 29.87 in 10.0 mi South 19.6 mph 25.3 mph N/A   Unknown
11:35 AM 78.8 °F - 64.4 °F 61% 29.87 in 10.0 mi South 17.3 mph 23.0 mph N/A   Unknown
11:55 AM 78.8 °F - 64.4 °F 61% 29.87 in 10.0 mi SSW 15.0 mph 21.9 mph N/A   Unknown
12:15 PM 78.8 °F - 62.6 °F 57% 29.86 in 10.0 mi SW 11.5 mph 23.0 mph N/A   Unknown
12:35 PM 78.8 °F - 62.6 °F 57% 29.86 in 10.0 mi SSW 13.8 mph 24.2 mph N/A   Unknown
12:55 PM 78.8 °F - 62.6 °F 57% 29.85 in 10.0 mi SSW 13.8 mph - N/A   Unknown
1:15 PM 80.6 °F 81.8 °F 62.6 °F 54% 29.84 in 10.0 mi SSW 16.1 mph - N/A   Unknown
1:35 PM 80.6 °F 81.8 °F 62.6 °F 54% 29.84 in 10.0 mi SSW 13.8 mph 21.9 mph N/A   Unknown
1:55 PM 82.4 °F 83.4 °F 62.6 °F 51% 29.83 in 10.0 mi SSW 17.3 mph - N/A   Unknown
2:15 PM 82.4 °F 83.4 °F 62.6 °F 51% 29.82 in 10.0 mi South 13.8 mph 21.9 mph N/A   Unknown
2:35 PM 82.4 °F 83.4 °F 62.6 °F 51% 29.81 in 10.0 mi SSW 13.8 mph 20.7 mph N/A   Unknown
2:55 PM 82.4 °F 83.4 °F 62.6 °F 51% 29.81 in 10.0 mi South 11.5 mph - N/A   Unknown
3:15 PM 84.2 °F 85.0 °F 62.6 °F 48% 29.81 in 10.0 mi SSW 15.0 mph 20.7 mph N/A   Unknown
3:35 PM 86.0 °F 86.6 °F 62.6 °F 45% 29.80 in 10.0 mi SSW 15.0 mph 21.9 mph N/A   Unknown
3:55 PM 86.0 °F 86.1 °F 60.8 °F 43% 29.80 in 10.0 mi SSW 13.8 mph 19.6 mph N/A   Unknown
4:15 PM 86.0 °F 86.1 °F 60.8 °F 43% 29.80 in 10.0 mi South 13.8 mph 19.6 mph N/A   Unknown
4:35 PM 86.0 °F 85.4 °F 59.0 °F 40% 29.80 in 10.0 mi SSW 11.5 mph 18.4 mph N/A   Unknown
4:55 PM 86.0 °F 85.4 °F 59.0 °F 40% 29.79 in 10.0 mi South 13.8 mph 18.4 mph N/A   Unknown
5:15 PM 84.2 °F 83.8 °F 59.0 °F 42% 29.80 in 10.0 mi South 11.5 mph - N/A   Unknown
5:35 PM 82.4 °F 82.5 °F 59.0 °F 45% 29.80 in 10.0 mi SSW 12.7 mph 20.7 mph N/A   Unknown
5:55 PM 84.2 °F 85.6 °F 64.4 °F 51% 29.80 in 10.0 mi SSE 15.0 mph 20.7 mph N/A   Unknown
6:15 PM 82.4 °F 83.9 °F 64.4 °F 54% 29.81 in 10.0 mi South 12.7 mph - N/A   Unknown
6:35 PM 80.6 °F 82.3 °F 64.4 °F 58% 29.81 in 10.0 mi SSE 9.2 mph - N/A   Unknown
6:55 PM 78.8 °F - 66.2 °F 65% 29.81 in 10.0 mi SSE 9.2 mph - N/A   Unknown
7:15 PM 78.8 °F - 66.2 °F 65% 29.82 in 10.0 mi SSE 10.4 mph - N/A   Unknown
7:35 PM 77.0 °F - 66.2 °F 69% 29.82 in 10.0 mi SSE 9.2 mph - N/A   Unknown
7:55 PM 77.0 °F - 66.2 °F 69% 29.83 in 10.0 mi SE 8.1 mph - N/A   Unknown
8:15 PM 77.0 °F - 66.2 °F 69% 29.83 in 10.0 mi SSE 8.1 mph - N/A   Unknown
8:35 PM 75.2 °F - 66.2 °F 73% 29.84 in 10.0 mi SSE 9.2 mph - N/A   Unknown
8:55 PM 75.2 °F - 66.2 °F 73% 29.84 in 10.0 mi SSE 9.2 mph - N/A   Unknown
9:15 PM 75.2 °F - 66.2 °F 73% 29.84 in 10.0 mi SSE 8.1 mph - N/A   Unknown
9:35 PM 73.4 °F - 66.2 °F 78% 29.85 in 10.0 mi SSE 6.9 mph - N/A   Unknown
9:55 PM 73.4 °F - 66.2 °F 78% 29.86 in 10.0 mi SSE 9.2 mph - N/A   Unknown
10:15 PM 73.4 °F - 66.2 °F 78% 29.87 in 10.0 mi SSE 9.2 mph - N/A   Unknown
10:35 PM 73.4 °F - 66.2 °F 78% 29.87 in 10.0 mi SSE 8.1 mph - N/A   Unknown
10:55 PM 71.6 °F - 66.2 °F 83% 29.87 in 10.0 mi SSE 8.1 mph - N/A   Unknown
11:15 PM 71.6 °F - 66.2 °F 83% 29.87 in 10.0 mi SSE 9.2 mph - N/A   Unknown
11:35 PM 71.6 °F - 66.2 °F 83% 29.88 in 10.0 mi SSE 8.1 mph - N/A   Unknown
11:55 PM 71.6 °F - 68.0 °F 88% 29.88 in 10.0 mi SSE 6.9 mph - N/A   Unknown